Hourly Data Report for October 02, 2015

All times are specified in Local Standard Time (LST). Add 1 hour to adjust for Daylight Saving Time where and when it is observed.

KUGLUKTUK A
NUNAVUT

67°49'00.000" N
115°08'38.000" W
22.60 m
2300903
71938
YCO

Download Data

Hourly Data (October 2015)
Hourly Data Report for October 2, 2015
Temp Definition
°C
Dew Point Temp Definition
°C
Rel Hum Definition
%
Wind Dir Definition
10's deg

Wind Spd Definition
km/h
Visibility Definition
km
Stn Press Definition
kPa
Hmdx Definition


Wind Chill Definition


Weather Definition


TIME
00:00 Legend Double Dagger -1.2 -5.4 73 25 24 24.1 102.65   -7 LegendNANA
01:00 Legend Double Dagger -2.1 -5.8 76 26 21 24.1 102.72   -8 LegendNANA
02:00 Legend Double Dagger -3.1 -6.1 80 23 14 24.1 102.78   -8 Clear
03:00 Legend Double Dagger -3.6 -5.8 85 22 19 24.1 102.83   -10 LegendNANA
04:00 Legend Double Dagger -3.0 -5.2 85 25 18 24.1 102.90   -9 LegendNANA
05:00 Legend Double Dagger -4.7 -6.4 88 22 16 24.1 102.95   -10 Mainly Clear
06:00 Legend Double Dagger -3.6 -6.4 81 25 23 24.1 102.95   -10 LegendNANA
07:00 Legend Double Dagger -4.9 -7.0 85 23 21 24.1 102.99   -12 LegendNANA
08:00 Legend Double Dagger -3.4 -6.5 79 24 20 24.1 102.99   -10 Clear
09:00 Legend Double Dagger -2.5 -6.5 74 27 20 24.1 102.98   -8 LegendNANA
10:00 Legend Double Dagger -1.6 -6.2 71 27 22 24.1 102.96   -8 LegendNANA
11:00 Legend Double Dagger -0.9 -6.5 66 26 26 24.1 102.96   -7 Clear
12:00 Legend Double Dagger 0.0 -5.8 65 27 22 24.1 102.94   -6 LegendNANA
13:00 Legend Double Dagger 0.9 -6.7 57 28 22 24.1 102.90     LegendNANA
14:00 Legend Double Dagger 1.2 -7.4 53 26 13 24.1 102.84     Mainly Clear
15:00 Legend Double Dagger 1.7 -8.2 48 25 20 24.1 102.79     LegendNANA
16:00 Legend Double Dagger 1.9 -8.0 48 23 20 24.1 102.75     LegendNANA
17:00 Legend Double Dagger 1.0 -7.5 53 22 14 24.1 102.70     Clear
18:00 Legend Double Dagger -0.6 -6.4 65 17 13 24.1 102.67   -5 LegendNANA
19:00 Legend Double Dagger -1.8 -7.3 66 19 18 24.1 102.63   -7 LegendNANA
20:00 Legend Double Dagger -2.9 -7.8 69 19 14 24.1 102.60   -8 Mainly Clear
21:00 Legend Double Dagger -3.2 -7.7 71 19 15 24.1 102.56   -8 LegendNANA
22:00 Legend Double Dagger -2.9 -7.6 70 22 18 24.1 102.54   -9 LegendNANA
23:00 Legend Double Dagger -3.1 -7.3 73 21 11 24.1 102.50   -7 Mainly Clear

Notes on Data Quality.

Legend

  • E = Estimated
  • M = Missing
  • NA = Not Available
  • ‡ = Partner data that is not subject to review by the National Climate Archives
Date modified: